Location: Barrio Las Umbrías
(40.4173°N, 4.8685°W)
Time: 14:09:12
(UTC+00:00)

Resurs 01 Rocket - Pass Details

Date: 17 August 2022
Orbit: 634 x 643 km, 97.9° (Epoch: 27 September)

Event Time Altitude Azimuth Distance (km) Brightness Sun altitude
Exits shadow 21:27:59 21° 211° (SSW) 1,428 3.3 -22.7°
Maximum altitude 21:30:16 35° 263° (W) 1,034 3.0 -23.0°
Drops below altitude 10° 21:34:20 10° 329° (NNW) 2,033 5.2 -23.6°
Sets 21:36:42 0° 339° (NNW) 2,945 6.1 -23.9°
